Regional Weather Roundup
Issued by NWS

Home | Current Version | Previous Version | Graphics & Text | Print | Product List | Glossary On
Versions: 1 2 3 4 5 6 7 8 9 10 11 12 13 14 15 16 17 18 19 20 21 22 23 24 25 26 27 28 29 30 31 32 33 34 35 36 37 38 39 40 41 42 43 44 45 46 47 48 49 50
000
ASUS43 KOAX 010810
RWRNE

WEATHER ROUNDUP FOR NEBRASKA
NATIONAL WEATHER SERVICE OMAHA NE
300 AM CDT TUE SEP 01 2015

NOTES: SATELLITE DATA IS BEING USED TO AUGMENT CLOUD COVER ABOVE
       12000 FEET.
       "FAIR" INDICATES FEW OR NO CLOUDS BELOW 12,000 FEET WITH NO
       SIGNIFICANT WEATHER AND/OR OBSTRUCTIONS TO VISIBILITY.

  * THESE STATIONS DO NOT REPORT WEATHER SUCH AS RAIN...SNOW OR FOG.

NEZ001>004-019>022-054>056-010900-
NEBRASKA PANHANDLE

CITY           SKY/WX    TMP DP  RH WIND       PRES   REMARKS
SCOTTSBLUFF    CLEAR     59  55  87 N3        30.00F
ALLIANCE       MOCLDY    60  52  74 W6        29.99F
CHADRON        CLEAR     62  49  62 S9        29.93S
KIMBALL        MOCLDY    56  53  89 W7        30.05F
SIDNEY         MOCLDY    63  54  72 SW5       30.04S
$$

NEZ057>060-069>072-079>082-010900-
SOUTHWEST NEBRASKA

CITY           SKY/WX    TMP DP  RH WIND       PRES   REMARKS
NORTH PLATTE   CLOUDY    68  60  75 W5        29.94S
IMPERIAL       LGT RAIN  67  62  84 E7        29.97F
LEXINGTON      CLOUDY    70  59  69 S6        29.91F
MCCOOK         CLOUDY    75  61  61 W15       29.91F
OGALLALA       CLOUDY    66  62  86 CALM      29.95F
$$

NEZ005>010-023>029-035>040-094-010900-
NORTH CENTRAL NEBRASKA

CITY           SKY/WX    TMP DP  RH WIND       PRES   REMARKS
VALENTINE      CLOUDY    61  58  90 NW5       29.94F
AINSWORTH      CLOUDY    65  64  94 CALM      29.92F
BROKEN BOW     CLOUDY    71  66  84 CALM      29.91F
O`NEILL        CLOUDY    71  69  95 CALM      29.90F
ORD            CLOUDY    70  66  87 SE7       29.88F
THEDFORD       CLOUDY    68  65  90 NW5       29.93F
$$

NEZ041-046>049-061>064-073>077-083>087-010900-
SOUTH CENTRAL NEBRASKA

CITY           SKY/WX    TMP DP  RH WIND       PRES   REMARKS
GRAND ISLAND   PTCLDY    68  64  87 S9        29.91F
AURORA         CLEAR     69  66  90 S10       29.92S
HASTINGS       CLEAR     70  62  76 S8        29.92F
HEBRON         CLEAR     72  62  70 S9        29.93S
HOLDREGE       MOCLDY    70  57  63 S8        29.92F
KEARNEY *      PTCLDY    73  55  53 S13       29.91F
YORK           CLEAR     68  66  94 S7        29.93S
$$

NEZ011>018-030>034-042>045-010900-
NORTHEAST NEBRASKA

CITY           SKY/WX    TMP DP  RH WIND       PRES   REMARKS
NORFOLK        CLEAR     68  66  93 SE7       29.90F
ALBION         CLEAR     67  65  92 SE5       29.91F FOG
BLAIR          CLEAR     71  67  87 S8        29.93S
COLUMBUS *     CLEAR     70  63  78 S5        29.92S
FREMONT        CLEAR     74  67  78 S9        29.92S
TEKAMAH        CLEAR     65  65 100 SE6       29.91F FOG
WAYNE          CLEAR     68  66  94 CALM      29.91F
$$

NEZ050>053-065>068-078-088>093-010900-
SOUTHEAST NEBRASKA

CITY           SKY/WX    TMP DP  RH WIND       PRES   REMARKS
LINCOLN        CLEAR     72  67  84 MISG      29.93S
OMAHA EPPLEY   CLEAR     72  69  90 SE9       29.93S
BEATRICE       CLEAR     71  67  87 SE6       29.95R
FALLS CITY     CLEAR     73  68  84 S8        29.95S
NEBRASKA CITY  CLEAR     71  68  90 SW8       29.95R
PLATTSMOUTH    CLEAR     71  67  87 S9        29.94R
$$

NEZ044-045-051>053-067-010900-
OMAHA AREA

CITY           SKY/WX    TMP DP  RH WIND       PRES   REMARKS
OMAHA EPPLEY   CLEAR     72  69  90 SE9       29.93S
BLAIR          CLEAR     71  67  87 S8        29.93S
FREMONT        CLEAR     74  67  78 S9        29.92S
MILLARD        CLEAR     70  68  93 CALM      29.93S
OFFUTT AFB     CLEAR     69  68  98 E6        29.93R
PLATTSMOUTH    CLEAR     71  67  87 S9        29.94R
WAHOO          FAIR      67  65  95 SE6       29.92S
$$



USA.gov is the U.S. government's official web portal to all federal, state and local government web resources and services.